Location: Cheyres
(46.8153°N, 6.7877°E)
Time: 09:44:03
(UTC+00:00)

Gbstr 26 Del rocket - Pass Details

Date: 26 September 2021
Orbit: 492 x 1263 km, 51.8° (Epoch: 18 October)

Event Time Altitude Azimuth Distance (km) Brightness Sun altitude
Rises 19:24:19 0° 215° (SW) 3,823 7.3 -21.3°
Reaches altitude 10° 19:26:56 10° 210° (SSW) 2,965 6.6 -21.7°
Maximum altitude 19:34:00 51° 138° (SE) 1,500 4.6 -22.8°
Enters shadow 19:36:34 38° 91° (E) 1,804 4.9 -23.2°
